User: anonymous   Login
Location: Salamanca
(40.9670°N, 5.6500°W)
Time: 02:22:25
(UTC+02:00)
Language:

Cosmos 1633 Rocket - Orbit

View from above orbital plane
View from above orbital plane
View from above satellite
View from above satellite

Ground track
Ground track

The orbit data is extracted from the following two-line orbital elements,

1 15593U 85020B   16178.22642200  .00000076  00000-0  61927-5 0  9992
2 15593  82.5378 235.7348 0012873 130.6707 288.2876 14.84214872691575
Epoch (UTC): 26 June 2016 05:26:02
Eccentricity: 0.0012873
inclination: 82.5378°
perigee height: 607 km
apogee height: 625 km
right ascension of ascending node: 235.7348°
argument of perigee: 130.6707°
revolutions per day: 14.84214872
mean anomaly at epoch: 288.2876°
orbit number at epoch: 69157

The dashed part of the orbit path shows where the satellite is in the earth's shadow,  

DLR